Location: Brodeslavy
(49.9527°N, 13.5567°E)
Time: 21:11:49
(UTC+00:00)

Cosmos 676 Rocket - Pass Details

Date: 17 June 2025
Orbit: 751 x 778 km, 74.0° (Epoch: 16 July)

Event Time Altitude Azimuth Distance (km) Brightness Sun altitude
Exits shadow 22:32:08 26° 184° (S) 1,470 4.9 -16.2°
Maximum altitude 22:35:02 66° 109° (ESE) 841 4.1 -16.3°
Drops below altitude 10° 22:40:13 10° 29° (NNE) 2,309 7.3 -16.4°
Sets 22:42:36 0° 26° (NNE) 3,235 8.3 -16.4°
